AWOS - Automated Weather Observation System

 

0
0
0
0

 

AWOS from is a family of real-time weather observation systems specially designed to detect, report and disseminate weather conditions at airports. It intended use is for various sized of airports, ranging from small domestic landing strips or remotely operated airports to large international airports.

We can offer a turn-key solution including sensors, installation, training comissioning etc, or we can offer you just the customized software package and the rest is done by the customer himself or by a 3rd party. We can also offer the sensors preferred by the customer or we can use the sensors existing at the airport today and implement them in the new AWOS system.

Real Time Data from Combitech in Linköping

METAR CABX 212250Z AUTO 10005KT 060V150 9000 R01/P2000N R19///// BR OVC031/// 05/02 Q1010

Linköping Sweden, Lat: 58.39172, Lon: 15.56505

 

 

 

 

 

GSM Voice and SMS ATIS


Meet us at Meteorological Technology World Expo 2017

Combitech AWOS team members will be in Amsterdam, Netherlands during Meteorological Technology World Expo at the..


Visa alla


AWOS Airport weather data:
     http://wx.awos.se

 

2017-10-21 22:55:55